[[{"header":{"parameterUnit":"m.s-1","parameterCategory":1,"la1":30.2991,"la2":30.254,"lo1":-89.0895,"lo2":-89.0444,"dy":0.0017,"dx":0.0017,"nx":28,"ny":28,"refTime":"2026-02-07T09:00:00:Z","depth":0,"parameterNumber":2,"parameterNumberName":"U-component_of_WINDS"},"data":[0,0,0,0,0,0,0,0,0,0,0,0,0,0,0,0,0,0,0,0,0,0,0,0,0,0,0,0,0,0,0,0,0,0,0,0,0,0,0,0,0,0,0,0,0,0,0,0,0,0,0,0,0,0,0,0,0,0,-2.7659,-2.7659,0,-2.7652,-2.7652,-2.7652,-2.7558,-2.7555,-2.7553,-2.7551,-2.7544,-2.7545,-2.7547,0,0,0,0,0,0,0,0,0,0,0,0,0,-2.7594,-2.7596,-2.7659,-2.7659,-2.7659,-2.7652,-2.7652,-2.7652,-2.7558,-2.7555,-2.7553,-2.755,-2.7543,-2.7545,-2.7548,0,0,0,0,0,0,0,0,0,0,0,0,0,-2.7608,-2.7596,-2.7659,-2.7612,-2.7607,-2.7652,-2.7652,-2.7652,-2.7559,-2.7555,-2.7552,-2.7548,-2.7542,-2.7545,-2.7548,-2.7638,0,0,-2.7557,-2.7558,0,0,0,0,0,0,0,0,-2.7607,-2.7611,-2.7619,-2.7615,-2.761,-2.7602,-2.7626,-2.7647,-2.756,-2.7577,-2.7551,-2.7547,-2.7566,-2.7567,-2.7573,-2.7637,-2.7637,-2.7557,-2.7559,-2.7561,-2.7561,0,0,0,0,0,0,0,-2.7606,-2.761,-2.7656,-2.7619,-2.7614,-2.7591,-2.7589,-2.7629,-2.7592,-2.7575,-2.7569,-2.7569,-2.7563,-2.757,-2.7572,-2.7637,-2.7557,-2.756,-2.7562,-2.7563,-2.7775,-2.7779,0,0,0,0,0,0,-2.7612,-2.761,-2.7657,-2.7656,-2.76,-2.7595,-2.7593,-2.7608,-2.7591,-2.7585,-2.7572,-2.7565,-2.7567,-2.7569,-2.7572,-2.7675,-2.7561,-2.7563,-2.7565,-2.7772,-2.7776,-2.778,0,0,0,0,0,0,-2.7611,-2.7617,-2.7657,-2.7631,-2.7635,-2.76,-2.7618,-2.761,-2.7617,-2.7588,-2.7581,-2.7587,-2.7564,-2.7567,-2.7622,-2.7674,-2.7565,-2.7567,-2.7767,-2.7773,-2.7778,-2.7884,0,0,0,0,0,0,-2.7609,-2.7617,-2.765,-2.7633,-2.7636,-2.7707,-2.7621,-2.7613,-2.7623,-2.7613,-2.76,-2.7595,-2.7562,-2.7618,-2.7625,-2.7676,-2.757,-2.7762,-2.777,-2.7776,-2.7876,-2.7893,-2.7907,0,0,0,0,0,-2.7607,-2.768,-2.7653,-2.7659,-2.7677,-2.771,-2.7712,-2.7673,-2.7627,-2.7661,-2.7642,-2.7595,-2.7668,-2.7625,-2.7632,-2.7684,-2.7759,-2.7768,-2.7776,-2.7869,-2.789,-2.7907,0,0,0,0,0,0,-2.7705,-2.7677,-2.7646,-2.7715,-2.7716,-2.7695,-2.7735,-2.7696,-2.771,-2.77,-2.7651,-2.7649,-2.7711,-2.7703,-2.7656,-2.7771,-2.7705,-2.7715,-2.7773,-2.7793,-2.7808,-2.7808,-2.7572,0,0,0,0,0,-2.7734,-2.7764,-2.7738,-2.7802,-2.7804,-2.777,-2.7783,-2.7753,-2.7751,-2.7751,-2.7737,-2.7737,-2.776,-2.7776,-2.7796,-2.7875,-2.7871,-2.7915,-2.7931,-2.7944,-2.7953,-2.7995,-2.8014,-2.7809,-2.7809,-2.7808,0,0,-2.7795,-2.7784,-2.7805,-2.7821,-2.7818,-2.785,-2.7771,-2.7807,-2.783,-2.7757,-2.7807,-2.7797,-2.7795,-2.7862,-2.7891,-2.7858,-2.8009,-2.7955,-2.7966,-2.7967,-2.8006,-2.8025,-2.8042,-2.7814,-2.7813,-2.7812,0,0,-2.7923,-2.7917,-2.797,-2.7969,-2.7966,-2.7943,-2.7956,-2.7941,-2.7931,-2.7982,-2.7927,-2.7955,-2.7995,-2.7996,-2.8001,-2.8132,-2.8089,-2.814,-2.8221,-2.8263,-2.8279,-2.8293,-2.8339,-2.8356,-2.8149,-2.815,-2.815,0,-2.7999,-2.8044,-2.8002,-2.8042,-2.8051,-2.7987,-2.804,-2.8041,-2.8045,-2.8053,-2.8015,-2.8065,-2.8059,-2.8126,-2.8158,-2.8165,-2.8179,-2.814,-2.828,-2.8294,-2.8306,-2.835,-2.8367,-2.8156,-2.8155,-2.8155,-2.8154,0,-2.8138,-2.817,-2.8213,-2.8219,-2.8232,-2.8279,-2.8245,-2.8264,-2.8234,-2.8215,-2.8268,-2.8259,-2.8276,-2.829,-2.826,-2.8353,-2.8332,-2.8289,-2.8221,-2.8333,-2.8373,-2.8389,-2.8165,-2.8163,-2.8161,-2.8159,0,0,-2.8323,-2.8307,-2.8323,-2.8325,-2.8318,-2.8342,-2.8387,-2.8404,-2.8421,-2.8427,-2.8462,-2.85,-2.8459,-2.8466,-2.8436,-2.8473,-2.8577,-2.8424,-2.8423,-2.8452,-2.8679,-2.8711,-2.8731,-2.8549,-2.8552,-2.8555,-2.8679,0,-2.8445,-2.852,-2.8484,-2.8563,-2.8593,-2.8534,-2.8573,-2.8573,-2.8558,-2.8581,-2.8565,-2.8591,-2.8536,-2.854,-2.8574,-2.8557,-2.8621,-2.8548,-2.8582,-2.8584,-2.8583,-2.8752,-2.8785,-2.8903,-2.8694,-2.8697,-2.8699,0,-2.8597,-2.8609,-2.8691,-2.868,-2.8691,-2.8726,-2.8739,-2.8763,-2.8762,-2.8749,-2.8758,-2.872,-2.8764,-2.8699,-2.8758,-2.8709,-2.8721,-2.8716,-2.8719,-2.8719,-2.8647,-2.8756,-2.8939,-2.8956,-2.8723,-2.8721,-2.8719,0,-2.8723,-2.876,-2.8814,-2.8818,-2.8806,-2.8833,-2.8829,-2.8825,-2.8838,-2.885,-2.8858,-2.8875,-2.8885,-2.8899,-2.8867,-2.8823,-2.8932,-2.8864,-2.8921,-2.8922,-2.8945,-2.8944,-2.9132,-2.8956,-2.8956,-2.8955,-2.8955,0,-2.8862,-2.8914,-2.8871,-2.8904,-2.8961,-2.8921,-2.8979,-2.8969,-2.8966,-2.8997,-2.8948,-2.8977,-2.8935,-2.896,-2.8936,-2.8989,-2.8994,-2.8984,-2.8977,-2.8988,-2.8989,-2.8994,-2.8984,-2.896,-2.8959,-2.8958,-2.8957,0,-2.9011,-2.8984,-2.9039,-2.9024,-2.9022,-2.9065,-2.9052,-2.9083,-2.9065,-2.9104,-2.9111,-2.9084,-2.9112,-2.9083,-2.9108,-2.9092,-2.9163,-2.9145,-2.9163,-2.9158,-2.9216,-2.9211,-2.9413,-2.9438,-2.9247,-2.9249,-2.9251,0,-2.91,-2.9139,-2.913,-2.9147,-2.9146,-2.9174,-2.9187,-2.915,-2.9166,-2.917,-2.92,-2.9224,-2.9241,-2.9289,-2.9271,-2.9291,-2.9272,-2.9342,-2.9274,-2.9284,-2.9272,-2.9269,-2.9273,-2.9355,-2.9357,-2.9359,-2.936,0,-2.9262,-2.9247,-2.9268,-2.9285,-2.9303,-2.9314,-2.9322,-2.9339,-2.9301,-2.9321,-2.935,-2.9363,-2.939,-2.9415,-2.943,-2.9426,-2.9388,-2.9382,-2.9396,-2.9407,-2.9415,-2.9411,-2.9199,-2.9377,-2.9375,-2.9374,-2.9373,-2.9373,-2.9383,-2.9415,-2.9413,-2.9439,-2.9441,-2.945,-2.9478,-2.9465,-2.9488,-2.9507,-2.9484,-2.9519,-2.952,-2.9536,-2.9538,-2.9565,-2.9535,-2.9556,-2.9561,-2.9566,-2.9574,-2.9413,-2.9568,-2.9567,-2.9567,-2.9566,-2.9566,0,-2.954,-2.9537,-2.9561,-2.9574,-2.9595,-2.9558,-2.9565,-2.9584,-2.9616,-2.962,-2.9638,-2.9671,-2.9695,-2.9681,-2.9702,-2.9726,-2.9709,-2.9733,-2.973,-2.973,-2.96,-2.9585,-2.9747,-2.9747,-2.9747,-2.9747,-2.9747,-2.9747,-2.9625,-2.9677,-2.9663,-2.9717,-2.9713,-2.9747,-2.9754,-2.9763,-2.9766,-2.9805,-2.9825,-2.9816,-2.9813,-2.9833,-2.9854,-2.9849,-2.9859,-2.9889,-2.9878,-2.9757,-2.9739,-2.9722,-2.9707,-2.9892,-2.9892,-3.0005,-3.0006,-3.0007]},{"header":{"parameterUnit":"m.s-1","parameterCategory":1,"la1":30.2991,"la2":30.254,"lo1":-89.0895,"lo2":-89.0444,"dy":0.0017,"dx":0.0017,"nx":28,"ny":28,"refTime":"2026-02-07T09:00:00:Z","depth":0,"parameterNumber":3,"parameterNumberName":"V-component_of_WINDS"},"data":[0,0,0,0,0,0,0,0,0,0,0,0,0,0,0,0,0,0,0,0,0,0,0,0,0,0,0,0,0,0,0,0,0,0,0,0,0,0,0,0,0,0,0,0,0,0,0,0,0,0,0,0,0,0,0,0,0,0,1.2329,1.2329,0,1.2358,1.2358,1.2358,1.2354,1.2353,1.2353,1.2352,1.238,1.2381,1.2382,0,0,0,0,0,0,0,0,0,0,0,0,0,1.2268,1.227,1.2328,1.2329,1.2329,1.2358,1.2358,1.2358,1.2354,1.2353,1.2353,1.2352,1.238,1.2381,1.2383,0,0,0,0,0,0,0,0,0,0,0,0,0,1.2296,1.227,1.2328,1.233,1.2331,1.2358,1.2358,1.2359,1.2354,1.2353,1.2352,1.2352,1.2379,1.2381,1.2383,1.2409,0,0,1.2388,1.2389,0,0,0,0,0,0,0,0,1.2294,1.2298,1.233,1.233,1.2331,1.2351,1.2347,1.2375,1.2354,1.2345,1.2352,1.2351,1.2371,1.2373,1.238,1.241,1.2411,1.2388,1.239,1.239,1.2391,0,0,0,0,0,0,0,1.2292,1.2297,1.234,1.233,1.2331,1.233,1.2333,1.2352,1.2362,1.2346,1.2346,1.2349,1.2371,1.2379,1.2381,1.2412,1.2388,1.239,1.2391,1.2392,1.2467,1.2468,0,0,0,0,0,0,1.229,1.2295,1.2339,1.2341,1.231,1.2331,1.2335,1.2345,1.2362,1.2363,1.235,1.2349,1.2376,1.2379,1.2382,1.2416,1.239,1.2392,1.2393,1.2466,1.2467,1.2468,0,0,0,0,0,0,1.2289,1.2294,1.2338,1.2318,1.2323,1.2333,1.2345,1.2346,1.2354,1.2365,1.2366,1.2356,1.2376,1.2379,1.2403,1.2416,1.2393,1.2394,1.2465,1.2466,1.2468,1.2482,0,0,0,0,0,0,1.2287,1.2294,1.2303,1.2318,1.2325,1.2358,1.2346,1.2348,1.2357,1.2357,1.2371,1.2372,1.2375,1.24,1.2405,1.2419,1.2396,1.2464,1.2466,1.2467,1.248,1.2484,1.2486,0,0,0,0,0,1.2285,1.2305,1.2304,1.2309,1.2337,1.2359,1.2363,1.2366,1.2358,1.2369,1.2376,1.2372,1.2414,1.2403,1.2408,1.2422,1.2463,1.2465,1.2467,1.2479,1.2483,1.2486,0,0,0,0,0,0,1.229,1.2307,1.2306,1.2331,1.2344,1.2358,1.2371,1.237,1.2384,1.2383,1.2386,1.2389,1.2414,1.242,1.2407,1.245,1.2438,1.2441,1.2445,1.2449,1.2452,1.245,1.2397,0,0,0,0,0,1.2295,1.2311,1.2325,1.2346,1.2353,1.2361,1.2371,1.2373,1.2385,1.239,1.2399,1.2411,1.2428,1.2438,1.2454,1.2481,1.2485,1.2494,1.2497,1.2499,1.2502,1.2519,1.2524,1.2475,1.2475,1.2475,0,0,1.2303,1.2315,1.2325,1.2348,1.2358,1.2376,1.2365,1.2384,1.2397,1.2393,1.2417,1.2424,1.2438,1.2464,1.2476,1.247,1.2517,1.2502,1.2504,1.2505,1.2522,1.2527,1.2531,1.2476,1.2476,1.2476,0,0,1.2329,1.2338,1.2358,1.2369,1.2385,1.2391,1.2396,1.2411,1.2416,1.244,1.2438,1.2454,1.2481,1.2492,1.2501,1.2533,1.2531,1.2538,1.2554,1.2571,1.2575,1.2579,1.2592,1.2597,1.2541,1.2541,1.2541,0,1.2337,1.2364,1.2369,1.2389,1.2399,1.2398,1.2419,1.2429,1.2449,1.2456,1.245,1.2486,1.2495,1.2525,1.2533,1.254,1.2547,1.2537,1.2574,1.2578,1.2581,1.2594,1.2599,1.2542,1.2542,1.2542,1.2542,0,1.2375,1.2394,1.2409,1.243,1.2442,1.2462,1.247,1.2482,1.2483,1.249,1.2516,1.2527,1.2546,1.2553,1.2553,1.2583,1.258,1.2574,1.2562,1.2587,1.2599,1.2604,1.2543,1.2543,1.2543,1.2542,0,0,1.2404,1.2429,1.2434,1.2445,1.2464,1.2478,1.2499,1.2519,1.253,1.2544,1.2562,1.2587,1.2582,1.2593,1.2595,1.2609,1.2637,1.2602,1.2602,1.261,1.2674,1.2679,1.2685,1.2635,1.2636,1.2637,1.2673,0,1.2433,1.247,1.2476,1.2509,1.2528,1.2528,1.2546,1.256,1.2567,1.2584,1.2591,1.2609,1.2601,1.2608,1.2622,1.2631,1.265,1.2628,1.2653,1.2654,1.2651,1.2691,1.2696,1.273,1.2678,1.2678,1.2679,0,1.2471,1.2488,1.2524,1.2542,1.255,1.2567,1.2587,1.2602,1.2618,1.2623,1.2636,1.2637,1.2659,1.2646,1.2677,1.2662,1.2673,1.2679,1.268,1.2684,1.2669,1.2697,1.274,1.2746,1.2686,1.2686,1.2685,0,1.249,1.2522,1.2549,1.2558,1.2579,1.2591,1.2601,1.2616,1.2629,1.2646,1.2654,1.2673,1.2684,1.2699,1.2705,1.2694,1.2737,1.2723,1.2742,1.2742,1.2751,1.2751,1.2799,1.2756,1.2756,1.2756,1.2756,0,1.2523,1.2545,1.2558,1.2575,1.26,1.2607,1.2632,1.2641,1.2655,1.2673,1.2673,1.2691,1.2697,1.2716,1.2721,1.2747,1.2751,1.2756,1.2758,1.2757,1.2757,1.2765,1.2763,1.2757,1.2757,1.2757,1.2756,0,1.2549,1.2559,1.2588,1.2607,1.2613,1.2631,1.2647,1.2663,1.2671,1.2694,1.27,1.2712,1.2734,1.2742,1.2768,1.2772,1.2803,1.2802,1.2798,1.2799,1.2818,1.2817,1.2873,1.2882,1.2832,1.2833,1.2833,0,1.2569,1.2587,1.2609,1.2622,1.2633,1.2653,1.2667,1.2674,1.2688,1.2709,1.2723,1.2745,1.2764,1.2799,1.281,1.283,1.283,1.2849,1.2833,1.2833,1.2833,1.2833,1.2835,1.2852,1.2853,1.2853,1.2853,0,1.2606,1.261,1.263,1.2652,1.2669,1.2686,1.2703,1.2713,1.2724,1.2739,1.2763,1.2777,1.2805,1.2828,1.285,1.2859,1.2859,1.2858,1.2864,1.2864,1.2863,1.2866,1.2808,1.2857,1.2857,1.2856,1.2856,1.2856,1.2631,1.2648,1.2667,1.2689,1.2703,1.272,1.2737,1.2748,1.2768,1.2792,1.2795,1.2821,1.2838,1.2868,1.2879,1.2899,1.2894,1.2902,1.2904,1.2906,1.2909,1.2859,1.2903,1.2903,1.2902,1.2902,1.2902,0,1.2669,1.2682,1.2702,1.2727,1.2746,1.2744,1.2764,1.2779,1.2802,1.2819,1.2838,1.2866,1.2888,1.2902,1.2925,1.2939,1.2939,1.2945,1.2944,1.2947,1.2911,1.2905,1.2944,1.2944,1.2944,1.2944,1.2944,1.2944,1.2691,1.272,1.2727,1.2764,1.2776,1.2803,1.2814,1.283,1.2844,1.2875,1.2895,1.2904,1.292,1.2945,1.2966,1.2969,1.2978,1.2985,1.2988,1.2954,1.2949,1.2945,1.294,1.2986,1.2986,1.3023,1.3023,1.3023]}]]